Glens Falls, NY

6:02 PM EST on December 07, 2019 (GMT -0500)
Bennett Memorial

Weather History for KGFL - October, 2019

Change the Weather History Date:

Thursday, October 10, 2019

  Actual Average Record
Temperature  
Mean Temperature 55 °F 48 °F  
Max Temperature 67 °F 60 °F 83 °F (1949)
Min Temperature 42 °F 37 °F 19 °F (1980)
Degree Days  
Heating Degree Days 10 16  
Month to date heating degree days 135 147  
Since 1 July heating degree days 357 432  
Cooling Degree Days 0 0  
Month to date cooling degree days 0 0  
Year to date cooling degree days 416 351  
Growing Degree Days 5 (Base 50)    
Moisture  
Dew Point 41 °F    
Average Humidity 62    
Maximum Humidity 89    
Minimum Humidity 34    
Precipitation  
Precipitation 0.00 in 0.12 in 1.11 in (1967)
Month to date precipitation 1.42 1.16  
Year to date precipitation 32.27 30.35  
Sea Level Pressure  
Sea Level Pressure 30.33 in    
Wind  
Wind Speed 6 mph (North)    
Max Wind Speed 15 mph    
Max Gust Speed 21 mph    
Visibility 10 miles    
Events      
T = Trace of Precipitation, MM = Missing Value Source: NWS Daily Summary

Daily Weather History Graph

Daily Weather History Graph

Search for Another Location

Airport or City:

Astronomy

Oct. 10, 2019 Rise Set
Actual Time 7:02 AM EDT 6:20 PM EDT
Civil Twilight 6:33 AM EDT 6:48 PM EDT
Nautical Twilight 6:00 AM EDT 7:21 PM EDT
Astronomical Twilight 5:27 AM EDT 7:54 PM EDT
Moon 5:27 PM EDT (10/10) 3:35 AM EDT (10/10)
Length of Visible Light 12h 15m
Length of Day
11h 18m
Waxing Gibbous, 91% of the Moon is Illuminated
Oct 10
Waxing Gibbous
Oct 13
Full
Oct 21
Last Quarter
Oct 27
New
Nov 4
First Quarter

Hourly Weather History & Observations

Time (EDT) Temp. Dew Point Humidity Pressure Visibility Wind Dir Wind Speed Gust Speed Precip Events Conditions
12:53 AM 51.1 °F 44.1 °F 77% 30.36 in 10.0 mi North 8.1 mph - N/A   Clear
1:53 AM 51.1 °F 44.1 °F 77% 30.36 in 10.0 mi North 6.9 mph - N/A   Clear
2:53 AM 51.1 °F 45.0 °F 80% 30.35 in 10.0 mi North 8.1 mph - N/A   Clear
3:53 AM 51.1 °F 44.1 °F 77% 30.35 in 10.0 mi North 6.9 mph - N/A   Partly Cloudy
4:53 AM 48.9 °F 43.0 °F 80% 30.35 in 10.0 mi North 6.9 mph - N/A   Clear
5:53 AM 48.9 °F 44.1 °F 83% 30.35 in 10.0 mi North 6.9 mph - N/A   Clear
6:53 AM 48.0 °F 44.1 °F 86% 30.36 in 10.0 mi North 6.9 mph - N/A   Clear
7:53 AM 50.0 °F 43.0 °F 77% 30.38 in 10.0 mi North 5.8 mph - N/A   Clear
8:53 AM 51.1 °F 45.0 °F 80% 30.38 in 10.0 mi North 10.4 mph - N/A   Clear
9:53 AM - - N/A% 30.36 in - North - - N/A   Unknown
10:53 AM 60.1 °F 37.9 °F 44% 30.37 in 10.0 mi NNE 10.4 mph - N/A   Clear
11:53 AM 62.1 °F 37.0 °F 39% 30.35 in 10.0 mi NNE 8.1 mph - N/A   Clear
12:53 PM 63.0 °F 37.0 °F 38% 30.34 in 10.0 mi NE 9.2 mph 17.3 mph N/A   Clear
1:53 PM 64.9 °F 35.1 °F 33% 30.30 in 10.0 mi NNE 8.1 mph - N/A   Clear
2:53 PM 66.0 °F 37.0 °F 34% 30.30 in 10.0 mi NNE 12.7 mph - N/A   Clear
3:53 PM 66.9 °F 37.9 °F 34% 30.29 in 10.0 mi NNE 11.5 mph - N/A   Clear
4:53 PM 66.0 °F 39.0 °F 37% 30.30 in 10.0 mi NNE 6.9 mph - N/A   Clear
5:53 PM 63.0 °F 39.0 °F 41% 30.31 in 10.0 mi NNW 4.6 mph - N/A   Clear
6:53 PM 53.1 °F 39.9 °F 61% 30.31 in 10.0 mi Calm Calm - N/A   Clear
7:53 PM 46.9 °F 39.9 °F 77% 30.31 in 10.0 mi NNE 3.5 mph - N/A   Clear
8:53 PM 48.0 °F 39.9 °F 74% 30.31 in 10.0 mi Calm Calm - N/A   Clear
9:53 PM 46.0 °F 42.1 °F 86% 30.29 in 10.0 mi Calm Calm - N/A   Clear
10:53 PM 44.1 °F 41.0 °F 89% 30.31 in 10.0 mi Calm Calm - N/A   Clear
11:53 PM 44.1 °F 41.0 °F 89% 30.30 in 10.0 mi Calm Calm - N/A   Clear